Location: Sky Meadows State Park
(38.9917°N, 77.9667°W)
Time: 01:07:28
(UTC-04:00)

Envisat - Visible Passes

Search period start: 24 June 2018 00:00
Search period end: 04 July 2018 00:00
Orbit: 764 x 766 km, 98.2° (Epoch: 23 June)

Date Brightness Start Highest point End Pass type
(mag) Time Alt. Az. Time Alt. Az. Time Alt. Az.
25 Jun 5.5 21:35:56 10° SW 21:39:34 20° W 21:43:13 10° NW visible
27 Jun 6.0 22:04:33 10° W 22:05:25 10° W 22:06:16 10° W visible
28 Jun 5.2 21:24:11 10° SSW 21:28:19 25° W 21:32:28 10° NW visible
30 Jun 5.7 21:51:34 10° WSW 21:54:07 14° W 21:56:41 10° WNW visible
01 Jul 4.8 21:12:35 10° SSW 21:17:05 32° W 21:21:36 10° NNW visible
03 Jul 5.5 21:39:28 10° SW 21:42:51 18° W 21:46:15 10° NW visible
